QPF
0.00 0.00 0.00 0.00 0.00 0.00 0.00 0.00 0.00 0.00 0.00 0.00 0.00 0.01 0.00 0.00 0.01 0.02 0.02 0.01 0.01 0.00 0.00 0.00 0.00 0.00 0.00 0.00 0.00 0.00 0.00 0.00
0.00 0.00 0.00 0.00 0.00 0.00 0.00 0.00 0.00 0.00 0.00 0.00 0.01 0.02 0.02 0.00 0.01 0.01 0.01 0.01 0.01 0.01 0.00 0.00 0.00 0.00 0.00 0.00 0.00 0.00 0.00 0.00
0.00 0.00 0.00 0.00 0.00 0.00 0.00 0.00 0.00 0.00 0.00 0.00 0.01 0.01 0.07 0.17 0.16 0.15 0.08 0.09 0.10 0.07 0.05 0.02 0.00 0.00 0.00 0.00 0.00 0.00 0.00 0.00
0.00 0.00 0.00 0.00 0.00 0.00 0.00 0.00 0.00 0.00 0.00 0.00 0.00 0.01 0.04 0.18 0.23 0.32 0.30 0.24 0.14 0.05 0.04 0.02 0.00 0.00 0.00 0.00 0.00 0.00 0.00 0.00
0.00 0.00 0.00 0.00 0.00 0.00 0.00 0.00 0.00 0.00 0.00 0.00 0.00 0.00 0.00 0.01 0.03 0.13 0.19 0.31 0.21 0.10 0.01 0.04 0.06 0.01 0.00 0.01 0.00 0.00 0.00 0.00
0.00 0.00 0.00 0.00 0.00 0.00 0.00 0.00 0.00 0.00 0.00 0.00 0.00 0.00 0.00 0.00 0.00 0.00 0.01 0.10 0.24 0.24 0.21 0.20 0.25 0.09 0.02 0.07 0.07 0.02 0.00 0.00
0.00 0.00 0.00 0.00 0.00 0.00 0.00 0.00 0.00 0.00 0.00 0.00 0.00 0.00 0.00 0.00 0.00 0.00 0.00 0.00 0.02 0.05 0.13 0.28 0.41 0.40 0.43 0.16 0.20 0.19 0.08 0.01
0.00 0.00 0.00 0.00 0.00 0.00 0.00 0.00 0.00 0.00 0.00 0.00 0.00 0.00 0.00 0.00 0.00 0.00 0.00 0.00 0.00 0.00 0.01 0.25 0.46 0.80 0.63 0.35 0.27 0.20 0.26 0.24
0.00 0.00 0.00 0.00 0.00 0.00 0.00 0.00 0.00 0.00 0.00 0.00 0.00 0.00 0.00 0.00 0.00 0.00 0.00 0.00 0.00 0.00 0.00 0.01 0.01 0.07 0.26 0.51 0.78 0.68 0.33 0.18
0.00 0.00 0.00 0.00 0.00 0.00 0.00 0.00 0.00 0.00 0.00 0.00 0.00 0.00 0.00 0.00 0.00 0.00 0.00 0.00 0.00 0.00 0.00 0.00 0.00 0.00 0.00 0.01 0.05 0.14 0.20 0.42
0.00 0.00 0.00 0.00 0.00 0.00 0.00 0.00 0.00 0.00 0.00 0.00 0.00 0.00 0.00 0.00 0.00 0.00 0.00 0.00 0.00 0.00 0.00 0.00 0.00 0.00 0.00 0.00 0.00 0.00 0.00 0.03
0.00 0.00 0.00 0.00 0.00 0.00 0.00 0.00 0.00 0.00 0.00 0.00 0.00 0.00 0.00 0.00 0.00 0.00 0.00 0.00 0.00 0.00 0.00 0.00 0.00 0.00 0.00 0.00 0.00 0.00 0.00 0.00
0.00 0.00 0.00 0.00 0.00 0.00 0.00 0.00 0.00 0.00 0.00 0.00 0.00 0.00 0.00 0.00 0.00 0.00 0.00 0.00 0.00 0.00 0.00 0.00 0.00 0.00 0.00 0.00 0.00 0.00 0.00 0.00
0.00 0.00 0.00 0.00 0.00 0.00 0.00 0.00 0.00 0.00 0.00 0.00 0.00 0.00 0.00 0.00 0.00 0.00 0.00 0.00 0.00 0.00 0.00 0.00 0.00 0.00 0.00 0.00 0.00 0.00 0.00 0.00
0.00 0.00 0.00 0.00 0.00 0.00 0.00 0.00 0.00 0.00 0.00 0.00 0.00 0.00 0.00 0.00 0.00 0.00 0.00 0.00 0.00 0.00 0.00 0.00 0.00 0.00 0.00 0.00 0.00 0.00 0.01 0.00
0.00 0.00 0.00 0.00 0.00 0.00 0.00 0.00 0.00 0.00 0.00 0.00 0.00 0.00 0.00 0.00 0.00 0.00 0.00 0.00 0.00 0.00 0.00 0.00 0.00 0.00 0.00 0.00 0.00 0.01 0.03 0.03
0.00 0.00 0.00 0.00 0.00 0.00 0.00 0.00 0.00 0.00 0.00 0.00 0.00 0.00 0.00 0.00 0.00 0.00 0.00 0.00 0.00 0.00 0.00 0.00 0.00 0.00 0.00 0.00 0.00 0.00 0.00 0.03
0.00 0.00 0.00 0.00 0.00 0.00 0.00 0.00 0.00 0.00 0.00 0.00 0.00 0.00 0.00 0.00 0.00 0.00 0.00 0.00 0.00 0.00 0.01 0.00 0.00 0.00 0.00 0.00 0.00 0.00 0.00 0.00
0.00 0.00 0.00 0.00 0.00 0.00 0.00 0.00 0.00 0.00 0.00 0.00 0.00 0.00 0.00 0.00 0.00 0.01 0.00 0.01 0.00 0.00 0.00 0.01 0.00 0.01 0.00 0.00 0.00 0.00 0.00 0.00
0.00 0.00 0.00 0.00 0.00 0.00 0.00 0.00 0.00 0.00 0.00 0.00 0.01 0.01 0.01 0.01 0.01 0.01 0.01 0.01 0.01 0.01 0.01 0.01 0.00 0.00 0.01 0.01 0.00 0.00 0.00 0.00
MSLP
1015.74 1015.66 1015.35 1014.95 1014.85 1014.83 1014.63 1014.44 1014.39 1014.33 1014.17 1014.06 1013.90 1013.70 1013.38 1013.46 1013.56 1013.58 1013.64 1013.66 1013.91 1014.07 1014.16 1014.15 1014.13 1014.08 1013.99 1014.00 1013.95 1013.76 1013.73 1013.20
1016.24 1016.11 1015.91 1015.39 1014.99 1014.89 1014.77 1014.65 1014.46 1014.45 1014.43 1014.35 1013.99 1013.60 1013.40 1013.39 1013.42 1013.49 1013.55 1013.80 1013.97 1014.02 1013.98 1014.00 1013.88 1013.86 1013.80 1013.67 1013.70 1013.67 1013.52 1012.99
1016.63 1016.65 1016.54 1016.13 1015.41 1015.38 1015.01 1014.72 1014.63 1014.48 1014.58 1014.62 1014.28 1014.07 1013.73 1013.65 1013.17 1013.28 1012.85 1013.33 1013.62 1013.51 1013.40 1013.56 1013.55 1013.51 1013.52 1013.43 1013.45 1013.23 1012.79 1012.47
1017.13 1017.17 1017.08 1016.74 1016.04 1015.92 1015.60 1015.24 1015.18 1014.94 1014.88 1014.85 1014.66 1014.40 1014.01 1013.83 1013.54 1013.26 1013.11 1013.21 1013.25 1012.99 1012.68 1012.66 1012.85 1013.05 1013.10 1013.13 1013.02 1012.62 1012.00 1011.61
1017.54 1017.60 1017.55 1017.29 1016.80 1016.51 1016.18 1015.82 1015.71 1015.49 1015.35 1015.18 1015.13 1014.73 1014.25 1014.08 1013.61 1013.30 1013.09 1012.95 1012.91 1012.55 1012.36 1012.32 1012.54 1012.48 1012.25 1012.14 1012.30 1012.19 1011.23 1010.88
1017.95 1017.90 1017.86 1017.70 1017.36 1017.32 1016.99 1016.56 1016.18 1016.22 1015.81 1015.50 1015.63 1015.29 1015.02 1014.67 1014.11 1013.63 1013.11 1012.72 1012.62 1012.42 1012.25 1011.88 1011.93 1011.48 1011.22 1010.80 1011.24 1011.56 1010.92 1009.94
1018.19 1018.10 1018.17 1017.98 1017.61 1017.66 1017.43 1017.05 1016.81 1016.70 1016.18 1015.94 1016.02 1015.72 1015.61 1015.21 1014.70 1014.04 1013.41 1012.63 1012.24 1012.30 1012.29 1012.27 1012.08 1011.45 1011.18 1010.39 1011.08 1010.91 1010.19 1009.86
1018.51 1018.54 1018.52 1018.44 1018.07 1017.91 1017.65 1017.33 1017.20 1016.87 1016.48 1016.26 1016.18 1016.05 1016.02 1015.76 1015.26 1014.52 1013.79 1013.08 1012.63 1012.26 1012.31 1012.18 1011.85 1011.14 1011.04 1011.11 1011.38 1011.64 1011.33 1010.93
1018.65 1018.58 1018.65 1018.70 1018.36 1018.07 1017.77 1017.47 1017.34 1017.12 1016.66 1016.54 1016.46 1016.28 1016.43 1016.26 1015.86 1015.32 1014.57 1013.81 1013.25 1012.67 1012.26 1011.87 1011.65 1011.29 1011.16 1011.15 1011.20 1010.30 1011.66 1011.25
1018.98 1018.99 1018.97 1018.90 1018.44 1018.08 1017.81 1017.54 1017.46 1017.05 1016.85 1016.78 1016.50 1016.55 1016.57 1016.43 1016.21 1015.70 1015.01 1014.43 1013.73 1013.19 1012.79 1012.46 1011.71 1011.15 1011.28 1011.20 1010.95 1011.00 1011.39 1011.24
1019.25 1019.30 1019.31 1019.15 1018.61 1018.35 1018.11 1017.85 1017.58 1017.31 1017.12 1016.92 1016.69 1016.70 1016.59 1016.55 1016.33 1015.89 1015.50 1014.87 1014.20 1013.55 1012.94 1012.66 1012.18 1011.39 1010.91 1010.91 1010.88 1010.77 1010.69 1010.51
1019.40 1019.47 1019.54 1019.40 1019.00 1018.91 1018.59 1018.29 1018.06 1017.90 1017.57 1017.13 1016.99 1016.80 1016.72 1016.56 1016.28 1016.05 1015.67 1015.16 1014.45 1013.79 1013.16 1012.66 1012.22 1011.75 1011.10 1010.55 1010.20 1010.05 1010.14 1010.37
1019.96 1019.92 1019.96 1019.81 1019.70 1019.62 1019.22 1018.99 1018.65 1018.31 1018.03 1017.60 1017.61 1017.34 1017.17 1017.11 1016.71 1016.42 1016.12 1015.61 1015.05 1014.32 1013.57 1012.93 1012.14 1011.67 1011.08 1010.31 1009.79 1009.24 1009.22 1009.21
1020.38 1020.36 1020.27 1020.27 1020.36 1020.18 1020.02 1019.78 1019.33 1018.76 1018.40 1018.55 1018.23 1018.21 1018.04 1017.75 1017.54 1017.11 1016.61 1016.21 1015.83 1015.19 1014.36 1013.28 1012.39 1011.77 1011.13 1010.56 1009.44 1008.68 1008.02 1007.86
1020.54 1020.60 1020.59 1020.79 1020.86 1020.58 1020.59 1020.28 1019.80 1019.49 1019.54 1019.32 1019.29 1019.14 1018.76 1018.46 1018.05 1017.67 1017.17 1016.69 1016.15 1015.55 1014.97 1014.20 1013.12 1011.89 1011.13 1010.65 1009.33 1008.49 1007.95 1006.85
1020.75 1020.86 1020.81 1021.08 1021.29 1021.15 1021.17 1020.99 1020.75 1020.73 1020.50 1020.35 1020.08 1019.70 1019.18 1018.78 1018.26 1017.88 1017.44 1016.95 1016.37 1015.70 1014.97 1014.29 1013.74 1012.66 1011.78 1010.38 1009.77 1009.36 1008.71 1007.60
1020.95 1020.99 1020.98 1021.41 1021.57 1021.59 1021.54 1021.61 1021.57 1021.33 1021.17 1020.91 1020.53 1020.02 1019.55 1018.95 1018.45 1018.01 1017.54 1016.95 1016.25 1015.54 1014.95 1014.36 1013.81 1013.18 1012.36 1011.48 1010.56 1009.30 1008.70 1008.35
1021.03 1021.07 1021.15 1021.61 1021.84 1021.94 1022.00 1022.09 1022.07 1021.86 1021.63 1021.37 1020.97 1020.34 1019.70 1019.12 1018.62 1018.07 1017.43 1016.75 1016.02 1015.26 1014.62 1013.92 1013.40 1013.01 1012.51 1011.95 1011.20 1010.58 1009.93 1009.38
1021.27 1021.37 1021.47 1021.90 1022.15 1022.26 1022.35 1022.46 1022.65 1022.52 1022.34 1021.87 1021.28 1020.66 1019.99 1019.36 1018.74 1018.02 1017.29 1016.73 1016.04 1015.21 1014.41 1013.68 1013.18 1012.72 1012.26 1011.72 1011.12 1010.82 1010.61 1010.20
1021.83 1021.96 1022.09 1022.35 1022.49 1022.60 1022.76 1022.98 1023.26 1023.08 1022.89 1022.41 1021.80 1021.22 1020.52 1019.73 1019.00 1018.20 1017.45 1016.80 1015.91 1014.96 1014.08 1013.37 1012.65 1012.13 1011.86 1011.54 1011.16 1010.94 1010.84 1010.68
Thickness
5699 5698 5700 5702 5701 5701 5702 5703 5703 5703 5703 5704 5704 5705 5707 5705 5703 5702 5700 5700 5696 5695 5693 5693 5693 5695 5697 5697 5698 5701 5702 5706
5690 5690 5690 5694 5696 5695 5696 5696 5697 5696 5695 5697 5699 5701 5702 5700 5699 5695 5693 5690 5687 5688 5689 5689 5691 5691 5692 5694 5695 5696 5698 5703
5683 5682 5681 5683 5687 5686 5688 5689 5690 5690 5689 5688 5690 5692 5694 5692 5694 5690 5685 5687 5685 5686 5688 5688 5690 5690 5690 5690 5691 5694 5698 5702
5676 5674 5673 5674 5677 5677 5678 5680 5680 5681 5681 5681 5681 5683 5685 5685 5686 5686 5686 5684 5683 5686 5690 5691 5690 5687 5686 5686 5689 5692 5699 5703
5667 5665 5664 5665 5668 5668 5669 5671 5670 5671 5671 5672 5672 5673 5676 5676 5678 5680 5678 5679 5680 5684 5686 5687 5681 5681 5684 5686 5685 5686 5697 5701
5659 5658 5657 5657 5658 5656 5657 5658 5659 5657 5659 5660 5659 5661 5662 5664 5666 5668 5672 5674 5674 5676 5678 5681 5678 5681 5684 5686 5686 5679 5688 5701
5649 5649 5647 5647 5648 5646 5646 5647 5646 5645 5647 5648 5646 5647 5647 5649 5652 5655 5659 5665 5668 5669 5668 5667 5667 5675 5666 5669 5677 5675 5681 5688
5640 5639 5637 5635 5636 5636 5636 5636 5634 5634 5635 5635 5634 5634 5633 5634 5637 5641 5645 5649 5652 5658 5657 5657 5657 5668 5669 5663 5664 5660 5667 5655
5630 5629 5626 5624 5624 5624 5623 5623 5621 5621 5622 5620 5618 5619 5616 5616 5618 5622 5626 5633 5637 5642 5642 5646 5647 5654 5658 5658 5652 5662 5654 5659
5618 5615 5613 5612 5613 5612 5611 5610 5607 5607 5606 5604 5603 5602 5600 5600 5600 5603 5607 5612 5618 5622 5625 5627 5633 5641 5641 5641 5647 5649 5647 5648
5604 5601 5598 5597 5598 5597 5595 5593 5591 5588 5586 5585 5585 5584 5584 5583 5584 5585 5587 5593 5599 5604 5609 5610 5615 5623 5632 5630 5633 5639 5643 5646
5592 5588 5584 5582 5581 5579 5577 5574 5570 5566 5564 5564 5562 5563 5563 5564 5567 5568 5570 5574 5581 5586 5592 5597 5600 5605 5612 5619 5624 5630 5633 5634
5575 5572 5569 5566 5561 5556 5554 5551 5548 5546 5542 5541 5539 5538 5538 5539 5542 5545 5547 5552 5559 5566 5572 5579 5587 5590 5595 5605 5611 5620 5625 5630
5559 5555 5552 5547 5540 5536 5531 5528 5525 5524 5521 5515 5513 5511 5509 5509 5510 5515 5521 5526 5530 5538 5547 5559 5569 5574 5579 5583 5594 5607 5620 5625
5544 5539 5534 5527 5519 5516 5509 5504 5501 5498 5490 5486 5481 5477 5478 5478 5480 5483 5489 5495 5504 5511 5519 5528 5540 5556 5562 5564 5576 5586 5598 5614
5528 5521 5517 5508 5500 5494 5486 5480 5475 5467 5462 5457 5453 5451 5451 5452 5456 5459 5464 5469 5476 5485 5494 5503 5511 5526 5536 5550 5558 5564 5568 5582
5512 5506 5501 5489 5481 5474 5466 5457 5448 5443 5437 5434 5432 5432 5432 5434 5436 5439 5443 5448 5456 5463 5471 5479 5488 5499 5512 5521 5530 5546 5554 5558
5499 5492 5485 5474 5465 5456 5448 5438 5430 5424 5419 5415 5413 5415 5417 5419 5421 5425 5430 5436 5443 5450 5457 5467 5475 5482 5491 5499 5508 5516 5524 5534
5485 5478 5470 5460 5450 5442 5432 5422 5411 5404 5400 5399 5400 5401 5404 5407 5410 5415 5420 5424 5430 5438 5446 5455 5462 5470 5478 5487 5495 5499 5506 5514
5470 5463 5455 5446 5437 5430 5420 5409 5398 5392 5386 5386 5388 5389 5392 5395 5399 5404 5409 5413 5419 5427 5436 5443 5452 5460 5466 5473 5481 5486 5491 5497